Regional Weather Roundup
Issued by NWS

Home | Current Version | Previous Version | Text Only | Print | Product List | Glossary Off
Versions: 1 2 3 4 5 6 7 8 9 10 11 12 13 14 15 16 17 18 19 20 21 22 23 24 25 26 27 28 29 30 31 32 33 34 35 36 37 38 39 40 41 42 43 44 45 46 47 48 49 50

000
ASUS45 KBOI 271310
RWRID
WEATHER ROUNDUP FOR IDAHO
NATIONAL WEATHER SERVICE BOISE ID
600 AM MST TUE JAN 27 2015

NOTE: "FAIR" INDICATES FEW OR NO CLOUDS BELOW 12000 FEET
WITH NO SIGNIFICANT WEATHER AND/OR OBSTRUCTIONS TO VISIBILITY

IDZ012-014-271400-
SOUTHWEST IDAHO


CITY           SKY/WX    TMP DP  RH WIND       PRES   REMARKS
BOISE          FOG       28  27  93 CALM      30.10S VSB 3/4
CALDWELL       CLOUDY    28  23  80 CALM      30.13S VSB 1/4
MOUNTAIN HOME  FRZ RAIN  28  27  93 E5        30.09S VSB 1/2 WCI  23
$$

IDZ016-017-271400-
SOUTHCENTRAL IDAHO


CITY           SKY/WX    TMP DP  RH WIND       PRES   REMARKS
BURLEY         MOCLDY    33  29  85 CALM      30.07R
JEROME         PTCLDY    36  30  79 NE14      30.08S WCI  27
TWIN FALLS     PTCLDY    32  27  81 CALM      30.07S
$$

IDZ019>023-271400-
SOUTHEAST IDAHO


CITY           SKY/WX    TMP DP  RH WIND       PRES   REMARKS
IDAHO FALLS    PTCLDY    25  22  88 N6        30.14R WCI  18
POCATELLO      CLEAR     27  26  96 N5        30.13R WCI  22
REXBURG        PTCLDY    20  15  81 E3        30.13F
$$

IDZ006-010-011-018-031-032-271400-
CENTRAL IDAHO MOUNTAINS


CITY           SKY/WX    TMP DP  RH WIND       PRES   REMARKS
MCCALL         PTCLDY    19  18  95 CALM      30.05F
HAILEY         PTCLDY    32  27  80 NW10      30.12F WCI  24
STANLEY          N/A     11   6  81 CALM      30.15F
SALMON         CLOUDY   N/A N/A N/A CALM      30.16S VSB 1/2
CHALLIS        MOCLDY    24  23  96 W3        30.13S
$$

IDZ002-004-006-007-026-271400-
NORTHERN IDAHO


CITY           SKY/WX    TMP DP  RH WIND       PRES   REMARKS
LEWISTON       MOCLDY    40  35  83 SE5       30.00S
LOWELL           N/A     35  34  96 CALM      30.12S
COEUR D`ALENE  PTCLDY    28  25  86 NE7       29.99S WCI  21
MULLAN PASS    PTCLDY    44  25  47 W6        30.02F
$$


USA.gov is the U.S. government's official web portal to all federal, state and local government web resources and services.